Regional Weather Roundup
Issued by NWS Grand Forks, ND

Home | Current Version | Previous Version | Graphics & Text | Print | Product List | Glossary On
Versions: 1 2 3 4 5 6 7 8 9 10 11 12 13 14 15 16 17 18 19 20 21 22 23 24 25 26 27 28 29 30 31 32 33 34 35 36 37 38 39 40 41 42 43 44 45 46 47 48 49 50
000
ASUS43 KFGF 211310
RWRFGF
PRAIRIE TO PINES  WEATHER ROUNDUP
NATIONAL WEATHER SERVICE EASTERN NORTH DAKOTA/GRAND FORKS ND
800 AM CDT SAT OCT 21 2017

 **SATELLITE DATA USED TO AUGMENT SKY COVER AT AUTOMATED STATIONS**
 *****  WEATHER ACROSS EASTERN NORTH DAKOTA  *****

CITY           SKY/WX    TMP DP  RH WIND       PRES   REMARKS
GRAND FORKS    FAIR      62  58  86 S16G24    29.36R
GRAND FRKS AFB FAIR      59  56  89 SW15      29.37R
DEVILS LAKE    FAIR      49  38  65 SW12      29.37R
FARGO          MOCLDY    63  58  83 S17G29    29.41R
WAHPETON ARPT  NOT AVBL
$$

 ***** WEATHER ACROSS CENTRAL AND WESTERN NORTH DAKOTA  *****

CITY           SKY/WX    TMP DP  RH WIND       PRES   REMARKS
BISMARCK       LGT RAIN  51  39  63 W26G37    29.52R
MINOT          FAIR      49  38  65 SW20G30   29.41R
JAMESTOWN      FAIR      51  37  58 W10       29.40F
MINOT AFB      FAIR      48  38  69 W20G28    29.38R
GARRISON         N/A     48  38  68 W20G32    29.47R
WILLISTON        N/A    N/A N/A N/A MISG      29.50R
DICKINSON      FAIR      45  34  65 W24G32    29.54R
HETTINGER      FAIR      46  29  51 W28G38    29.60R
$$

 *****  OTHER AIRPORT OBSERVATIONS IN OUR AREA  *****

CITY           SKY/WX    TMP DP  RH WIND       PRES   REMARKS
WALHALLA       FAIR     N/A N/A N/A VRB7G21   29.30R
GRAFTON AIRPOR FAIR      59  57  94 S16       29.35R
VALLEY CITY AR FAIR      52  39  62 W13       29.42S
CANDO          FAIR      48  37  66 W14       29.35R
CAVALIER APRT  FAIR      59  59 100 S16G22    29.29S
GWINNER        PTSUNNY   59  55  88 W7        29.44R
SHEYENNE NWR     N/A     62  59  90 S7        29.95S
ROLLA          FAIR      50  37  62 W23G31    29.28F
 ***** THE ABOVE OBSERVATIONS ARE NON NWS ARE NOT QUALITY
       CONTROLLED AND MAY MIS-REPORT RAIN FOR SNOW...
$$

  *****  WEATHER ACROSS NORTHERN MINNESOTA  *****

CITY           SKY/WX    TMP DP  RH WIND       PRES   REMARKS
FLAG ISLAND    FAIR      57  52  82 SE18      29.42S
WARROAD        FAIR      61  55  82 SE14      29.42S
ROSEAU         FAIR      63  55  77 S12       29.40S
HALLOCK        FAIR      64  57  77 S21G26    29.32S
THF RVR FALLS  NOT AVBL
BAUDETTE       FAIR      61  55  81 SE13G23   29.46F
WASKISH        FAIR      63  55  77 SE13G20   29.49F
CROOKSTON      FAIR      64  57  77 S25       29.39R
STEPHEN NDAWN    N/A     63  57  82 S18         N/A
GREENBUSH NDAW   N/A     63  57  82 S16         N/A
$$
  *****  WEATHER ACROSS CENTRAL AND WEST MINNESOTA  *****

CITY           SKY/WX    TMP DP  RH WIND       PRES   REMARKS
FOSSTON        FAIR      61  54  77 S17G25    29.45R
BEMIDJI        CLOUDY    63  56  80 S15G23    29.50F
PARK RAPIDS    CLOUDY    63  57  81 S21G30    29.52S
ELBOW LAKE     PTSUNNY   60  56  88 SE18G25   29.50S
WADENA         CLOUDY    61  55  82 MISG      29.53R
DETROIT LAKES  MOCLDY    61  55  82 S14G20    29.49S
MOORHEAD       FAIR      63  55  77 S22       29.43S
FERGUS FALLS   MOCLDY    61  55  82 S17       29.49R
MORRIS MN      MOCLDY    63  57  82 S15G21    29.50S
STAPLES        CLOUDY    61  54  77 S15       29.55F
$$
  *****  WEATHER ELSEWHERE ACROSS MINNESOTA  *****

CITY           SKY/WX    TMP DP  RH WIND       PRES   REMARKS
DULUTH         CLOUDY    60  52  74 S15       29.68R
INTRNTL FALLS  FAIR      61  52  72 S8G16     29.55R
ELY            MOCLDY    59  48  67 S9        29.66S
CLOQUET        CLOUDY    63  50  63 S7        29.67S
WHEATON        FAIR      61  55  82 SE13      29.48S
BRAINERD       CLOUDY    62  54  74 S14G22    29.60S
HIBBING        CLOUDY    59  51  75 S8G22     29.63S
ALEXANDRIA     CLOUDY    62  56  80 S21G28    29.55S
SAINT CLOUD    LGT RAIN  61  57  87 SE14      29.61S
MINNEAPOLIS    LGT RAIN  60  58  92 SE14      29.69F
$$

  *****  WEATHER ACROSS SOUTH DAKOTA  *****

CITY           SKY/WX    TMP DP  RH WIND       PRES   REMARKS
SIOUX FALLS    MOCLDY    65  61  87 S16       29.52R
BROOKINGS      CLOUDY    63  57  82 S16       29.50S
WATERTOWN      FAIR      60  59  96 S15       29.46S
HURON          CLOUDY    60  57  89 SW6       29.46R
SISSETON         N/A     63  58  83 S8        29.45R
ABERDEEN       FAIR      53  45  74 W8        29.48R
MITCHELL       FAIR      63  59  87 S8        29.47R
PIERRE         MOCLDY    52  40  63 NW24G37   29.57R
MOBRIDGE       FAIR      53  40  61 NW23G29   29.55R
RAPID CITY     MOCLDY    50  25  37 NW24G35   29.68R
$$

  *****  SOME WEATHER IN NEARBY STATES *****

CITY           SKY/WX    TMP DP  RH WIND       PRES   REMARKS
GLASGOW MT     CLOUDY    43  39  86 W25G32    29.60R
GREAT FALLS MT FAIR      37  24  59 SW15      29.81R
CHEYENNE WY    FAIR      36  16  44 W24G33    29.88R
SCOTTSBLUFF NE FAIR      47  23  38 W12       29.83R
OMAHA NE       CLOUDY    68  61  78 S21       29.64R
DES MOINES IA  CLOUDY    65  58  78 S20G31    29.78R
DAVENPORT IA   FAIR      63  51  65 S15G24    29.97S
CHICAGO IL     MOCLDY    62  49  62 S15       30.06R
EAU CLAIRE WI  LGT RAIN  60  52  74 S13       29.81R
LA CROSSE WI   MOCLDY    65  53  65 S18       29.84R
$$

  *****  SOME NATIONAL WEATHER *****

CITY           SKY/WX    TMP DP  RH WIND       PRES   REMARKS
LA GUARDIA NY  FAIR      63  43  48 CALM      30.33R
RALEIGH NC     FAIR      57  55  93 CALM      30.34R
ATLANTA GA     PTSUNNY   55  49  80 E7        30.28R
NEW ORLEANS LA PTSUNNY   76  72  87 E12       30.05R
OKLAHOMA CITY  MOCLDY    69  65  86 S16G24    29.84R
ALBUQUERQUE NM MOCLDY    56  33  42 W9        29.96R
SALT LAKE CITY MOCLDY    40  30  67 W6        30.13R
LOS ANGELES CA MOCLDY    63  44  50 N3        30.00R
BOISE ID       FAIR      35  30  82 E8        30.13S
SEATTLE WA     LGT RAIN  46  42  86 E12       29.84F
$$

*** WEATHER ACROSS MANITOBA...SASKATCHEWAN AND ONTARIO ***
                ***ONTARIO***

CITY           SKY/WX    TMP DP  RH WIND       PRES   REMARKS
GERALDTON      MOCLDY    54  48  82 S9        29.82R
THUNDER BAY    MOCLDY    55  48  76 NE5       29.75S
SIOUX LOOKOUT  CLOUDY    55  50  82 SE6       29.58R
TORONTO        PTSUNNY   55  48  76 S3        30.26R
BIG TROUT LK   CLOUDY    39  34  81 SE17G25   29.68S
PICKLE LAKE    MOCLDY    50  45  81 SE10      29.62S
DRYDEN         MOCLDY    57  52  82 SE15      29.54F
KENORA         CLOUDY    61  54  77 S14       29.47S
$$
                *** MANITOBA***

CITY           SKY/WX    TMP DP  RH WIND       PRES   REMARKS
BRANDON        PTCLDY    45  43  93 W12       29.24R
DAUPHIN        CLEAR     43  41  93 W8        29.18S
ISLAND LAKE    MOCLDY    52  45  76 SE16G23   29.37F
PILOT MOUND      N/A     46  43  87 SW13        N/A
THE PAS        MOCLDY    41  37  87 N7        29.25R
THOMPSON       CLOUDY    39  36  87 E7        29.30F
WINNIPEG       PTCLDY    64  57  77 S23G31    29.28S
LYNN LAKE      CLOUDY    36  34  93 NE7       29.37R
CHURCHILL      LGT RAIN  36  32  87 SE23G31   29.62S
GILLAM         CLOUDY    39  34  81 SE9G17    29.45S
$$
                ***SASKATCHEWAN***

CITY           SKY/WX    TMP DP  RH WIND       PRES   REMARKS
ESTEVAN        MOCLDY    45  37  76 W13       29.41R
KINDERSLEY     LGT RAIN  39  37  93 NW12G17   29.54R
LLOYDMINSTER   CLOUDY    39  34  81 W12       29.54R
PRINCE ALBERT  CLOUDY    41  36  81 NW13G20   29.37R
REGINA         MOCLDY    43  37  81 W17G23    29.38R
YORKTON        CLOUDY    43  39  87 W13       29.26R
N. BATTLEFORD  RAIN      41  37  87 NW23      29.50R
LA RONGE       DRIZZLE   37  36  93 NW7       29.40R FOG
SASKATOON      CLOUDY    43  37  81 N15       29.41R
SWIFT CURRENT  LGT RAIN  39  37  93 NW25G32   29.52R FOG
$$
NOTE: THESE ARE AUTOMATED STATIONS WITH LIMITED QUALITY CONTROL
      "FAIR" INDICATES FEW OR NO CLOUDS BELOW 12,000 FEET WITH NO
      SIGNIFICANT WEATHER AND/OR OBSTRUCTIONS TO VISIBILITY.
      SKY/WX - SKY CONDITION AND SIGNIFICANT WEATHER.
      TMP - AIR TEMPERATURE.    DP   - DEWPOINT TEMPERATURE.
      RH  - RELATIVE HUMIDITY.  PRES - PRESSURE.
      HX  - HEAT INDEX.         WCI  - WIND CHILL INDEX.
$




USA.gov is the U.S. government's official web portal to all federal, state and local government web resources and services.